Temp_Advection
nan nan nan nan nan nan nan nan nan nan nan nan nan nan nan nan nan nan nan nan nan nan
nan 0 0 0 1 1 0 0 -0 -0 -0 -0 0 1 1 1 0 0 0 1 1 nan
nan 0 -0 -0 0 0 0 0 -0 0 0 0 0 0 0 0 0 0 1 1 1 nan
nan 0 0 1 1 0 1 1 0 0 1 0 0 0 0 0 0 1 1 0 0 nan
nan 1 1 1 1 1 1 0 -0 0 1 0 -0 0 1 0 0 1 1 -0 0 nan
nan 0 0 0 0 0 0 -0 -0 -0 1 1 -0 0 1 1 1 1 0 -0 -0 nan
nan 0 0 0 0 -0 -0 -0 0 1 1 1 0 0 1 1 0 1 -0 -0 0 nan
nan -0 -0 -0 -0 0 0 0 0 0 1 1 0 1 0 0 0 0 -0 -0 -0 nan
nan -0 -0 0 0 0 0 0 0 1 1 0 1 0 0 0 0 0 -0 -0 0 nan
nan 0 0 0 0 0 0 0 0 1 1 1 0 0 0 0 0 0 0 0 0 nan
nan 0 0 0 0 0 0 0 1 1 1 0 0 -0 -0 0 0 0 0 0 0 nan
nan 1 0 0 0 1 0 1 1 1 1 0 0 -0 -0 0 0 0 0 -0 -0 nan
nan 1 1 0 0 0 0 1 1 1 1 0 0 -0 -0 0 0 0 -0 -0 -0 nan
nan nan nan nan nan nan nan nan nan nan nan nan nan nan nan nan nan nan nan nan nan nan
Wind_Speed
29 29 27 27 26 25 24 23 20 18 18 19 22 23 24 24 25 24 24 24 23 23
25 28 29 27 22 18 18 18 15 17 18 20 22 26 26 26 25 25 24 23 23 21
18 18 17 15 13 16 19 18 19 18 19 22 23 24 25 26 25 24 23 21 18 17
19 19 18 19 23 23 21 21 20 23 23 25 24 25 25 25 25 23 21 19 19 18
21 21 22 21 21 21 20 24 21 24 23 23 23 24 23 22 22 22 20 19 20 20
23 23 22 22 22 22 21 18 19 22 23 23 23 22 23 23 21 21 21 19 21 20
24 23 24 23 21 18 18 19 21 22 23 23 22 21 21 21 21 21 21 18 19 19
22 23 22 20 19 19 20 20 21 23 22 21 20 19 19 19 17 17 19 18 19 19
21 21 21 21 21 20 21 22 22 22 21 20 19 18 18 17 16 16 18 19 18 19
22 23 23 22 22 22 21 21 21 20 20 17 16 15 15 14 13 13 14 14 14 14
25 25 25 24 23 22 21 21 20 19 17 15 13 14 13 13 13 12 12 11 11 11
26 27 26 24 22 22 22 21 20 19 16 12 12 13 14 12 11 11 11 11 11 9
24 25 26 23 22 22 22 20 18 15 13 13 13 14 11 8 8 9 9 10 9 8
23 23 23 23 23 21 21 18 15 14 14 14 14 13 12 10 9 9 10 10 9 9
Wind_Direction
237 234 232 234 232 237 240 240 242 250 265 277 281 283 286 284 284 283 281 278 273 275
243 237 238 238 240 241 242 251 263 276 280 287 290 285 281 281 279 279 279 275 270 274
229 228 228 233 236 258 260 260 256 267 276 278 278 279 282 283 281 280 275 271 267 262
230 217 216 233 241 230 234 245 256 273 272 276 280 282 281 280 277 277 272 267 260 256
237 230 238 228 225 231 241 251 270 279 280 279 285 288 283 282 276 276 266 259 259 259
241 243 239 239 243 253 260 270 279 283 285 285 284 283 280 279 274 267 266 260 258 257
248 246 244 245 249 254 265 273 278 284 284 283 282 283 281 280 277 268 262 258 256 258
246 242 240 244 250 257 265 275 281 283 283 284 286 287 286 286 285 274 259 256 256 256
244 242 242 244 250 259 267 273 280 281 280 283 286 289 291 282 276 264 252 254 256 259
240 242 245 250 255 263 270 277 278 277 278 278 284 288 281 274 263 247 250 250 252 253
246 246 248 251 258 265 274 278 272 269 270 278 282 278 273 269 255 242 243 243 239 237
249 248 249 252 260 267 274 273 265 265 267 278 272 273 270 260 247 235 234 231 230 231
252 252 251 253 258 265 274 273 266 259 261 260 265 267 257 237 221 225 234 238 238 237
253 255 254 252 255 264 269 269 260 250 250 252 257 255 240 232 227 231 233 235 236 241
Height
1510 1512 1514 1517 1519 1520 1522 1524 1527 1527 1527 1526 1524 1528 1525 1525 1523 1521 1519 1518 1518 1518
1505 1508 1511 1513 1515 1518 1521 1523 1524 1524 1524 1523 1521 1522 1520 1519 1518 1515 1513 1514 1513 1513
1503 1505 1508 1509 1511 1515 1517 1518 1519 1519 1518 1516 1515 1515 1513 1512 1510 1507 1509 1508 1508 1509
1501 1501 1503 1505 1506 1508 1511 1512 1513 1511 1511 1510 1509 1508 1506 1505 1503 1500 1502 1504 1504 1503
1498 1499 1501 1501 1503 1505 1506 1507 1505 1504 1506 1505 1503 1500 1500 1498 1497 1495 1497 1498 1498 1498
1493 1495 1497 1498 1500 1501 1501 1501 1500 1500 1500 1499 1497 1494 1493 1492 1492 1491 1492 1492 1493 1493
1489 1491 1493 1494 1495 1496 1496 1496 1496 1494 1494 1493 1491 1487 1487 1486 1485 1486 1487 1488 1489 1488
1484 1486 1487 1489 1490 1491 1492 1492 1491 1489 1488 1487 1484 1483 1482 1481 1480 1480 1483 1483 1485 1484
1479 1481 1483 1484 1486 1487 1487 1486 1484 1483 1482 1481 1480 1478 1478 1477 1476 1477 1478 1479 1478 1481
1475 1477 1479 1480 1481 1481 1481 1480 1478 1477 1477 1476 1476 1475 1475 1474 1473 1473 1474 1473 1474 1477
1470 1472 1473 1474 1475 1475 1475 1474 1473 1472 1473 1473 1473 1472 1471 1470 1470 1470 1471 1472 1473 1474
1464 1466 1467 1468 1469 1470 1470 1469 1468 1468 1468 1469 1469 1468 1468 1467 1467 1467 1469 1470 1471 1472
1460 1461 1462 1463 1464 1464 1464 1464 1463 1463 1465 1465 1466 1465 1465 1465 1465 1466 1468 1469 1470 1470
1455 1456 1457 1458 1458 1458 1458 1458 1458 1460 1461 1462 1463 1463 1463 1464 1464 1466 1466 1467 1468 1469